Year,Month,Day,Hour,Minute,Value (Times are PST for temperature in C)
2012,07,02,00,00,14.20
2012,07,02,00,01,14.20
2012,07,02,00,02,14.20
2012,07,02,00,03,14.20
2012,07,02,00,04,14.20
2012,07,02,00,05,14.20
2012,07,02,00,06,14.20
2012,07,02,00,07,14.20
2012,07,02,00,08,14.20
2012,07,02,00,09,14.20
2012,07,02,00,10,14.20
2012,07,02,00,11,14.20
2012,07,02,00,12,14.20
2012,07,02,00,13,14.20
2012,07,02,00,14,14.20
2012,07,02,00,15,14.10
2012,07,02,00,16,14.10
2012,07,02,00,17,14.10
2012,07,02,00,18,14.10
2012,07,02,00,19,14.10
2012,07,02,00,20,14.10
2012,07,02,00,21,14.10
2012,07,02,00,22,14.10
2012,07,02,00,23,14.10
2012,07,02,00,24,14.10
2012,07,02,00,25,14.10
2012,07,02,00,26,14.00
2012,07,02,00,27,14.00
2012,07,02,00,28,14.00
2012,07,02,00,29,14.00
2012,07,02,00,30,14.00
2012,07,02,00,31,14.00
2012,07,02,00,32,14.00
2012,07,02,00,33,14.00
2012,07,02,00,34,14.00
2012,07,02,00,35,14.10
2012,07,02,00,36,14.10
2012,07,02,00,37,14.10
2012,07,02,00,38,14.10
2012,07,02,00,39,14.10
2012,07,02,00,40,14.10
2012,07,02,00,41,14.10
2012,07,02,00,42,14.10
2012,07,02,00,43,14.10
2012,07,02,00,44,14.10
2012,07,02,00,45,14.10
2012,07,02,00,46,14.10
2012,07,02,00,47,14.10
2012,07,02,00,48,14.10
2012,07,02,00,49,14.10
2012,07,02,00,50,14.10
2012,07,02,00,51,14.10
2012,07,02,00,52,14.10
2012,07,02,00,53,14.10
2012,07,02,00,54,14.10
2012,07,02,00,55,14.10
2012,07,02,00,56,14.10
2012,07,02,00,57,14.10
2012,07,02,00,58,14.20
2012,07,02,00,59,14.20
2012,07,02,01,00,14.20
2012,07,02,01,01,14.20
2012,07,02,01,02,14.20
2012,07,02,01,03,14.20
2012,07,02,01,04,14.20
2012,07,02,01,05,14.20
2012,07,02,01,06,14.20
2012,07,02,01,07,14.20
2012,07,02,01,08,14.20
2012,07,02,01,09,14.20
2012,07,02,01,10,14.20
2012,07,02,01,11,14.20
2012,07,02,01,12,14.20
2012,07,02,01,13,14.20
2012,07,02,01,14,14.20
2012,07,02,01,15,14.20
2012,07,02,01,16,14.20
2012,07,02,01,17,14.20
2012,07,02,01,18,14.20
2012,07,02,01,19,14.20
2012,07,02,01,20,14.20
2012,07,02,01,21,14.20
2012,07,02,01,22,14.10
2012,07,02,01,23,14.10
2012,07,02,01,24,14.10
2012,07,02,01,25,14.10
2012,07,02,01,26,14.10
2012,07,02,01,27,14.10
2012,07,02,01,28,14.10
2012,07,02,01,29,14.10
2012,07,02,01,30,14.10
2012,07,02,01,31,14.10
2012,07,02,01,32,14.10
2012,07,02,01,33,14.10
2012,07,02,01,34,14.10
2012,07,02,01,35,14.10
2012,07,02,01,36,14.10
2012,07,02,01,37,14.10
2012,07,02,01,38,14.10
2012,07,02,01,39,14.10
2012,07,02,01,40,14.10
2012,07,02,01,41,14.10
2012,07,02,01,42,14.10
2012,07,02,01,43,14.10
2012,07,02,01,44,14.10
2012,07,02,01,45,14.10
2012,07,02,01,46,14.10
2012,07,02,01,47,14.10
2012,07,02,01,48,14.10
2012,07,02,01,49,14.10
2012,07,02,01,50,14.10
2012,07,02,01,51,14.10
2012,07,02,01,52,14.10
2012,07,02,01,53,14.10
2012,07,02,01,54,14.10
2012,07,02,01,55,14.10
2012,07,02,01,56,14.00
2012,07,02,01,57,14.00
2012,07,02,01,58,14.00
2012,07,02,01,59,14.00
2012,07,02,02,00,14.00
2012,07,02,02,01,14.00
2012,07,02,02,02,13.90
2012,07,02,02,03,13.90
2012,07,02,02,04,13.90
2012,07,02,02,05,13.90
2012,07,02,02,06,13.90
2012,07,02,02,07,13.90
2012,07,02,02,08,13.90
2012,07,02,02,09,13.90
2012,07,02,02,10,13.90
2012,07,02,02,11,13.90
2012,07,02,02,12,13.90
2012,07,02,02,13,13.90
2012,07,02,02,14,13.90
2012,07,02,02,15,13.90
2012,07,02,02,16,13.90
2012,07,02,02,17,13.90
2012,07,02,02,18,13.90
2012,07,02,02,19,13.90
2012,07,02,02,20,14.00
2012,07,02,02,21,14.00
2012,07,02,02,22,14.00
2012,07,02,02,23,13.90
2012,07,02,02,24,13.90
2012,07,02,02,25,13.90
2012,07,02,02,26,13.90
2012,07,02,02,27,13.90
2012,07,02,02,28,13.90
2012,07,02,02,29,13.90
2012,07,02,02,30,13.90
2012,07,02,02,31,13.90
2012,07,02,02,32,13.90
2012,07,02,02,33,13.90
2012,07,02,02,34,13.90
2012,07,02,02,35,13.90
2012,07,02,02,36,13.90
2012,07,02,02,37,13.90
2012,07,02,02,38,13.90
2012,07,02,02,39,13.90
2012,07,02,02,40,13.90
2012,07,02,02,41,13.90
2012,07,02,02,42,13.90
2012,07,02,02,43,13.90
2012,07,02,02,44,13.80
2012,07,02,02,45,13.80
2012,07,02,02,46,13.80
2012,07,02,02,47,13.80
2012,07,02,02,48,13.80
2012,07,02,02,49,13.80
2012,07,02,02,50,13.80
2012,07,02,02,51,13.80
2012,07,02,02,52,13.80
2012,07,02,02,53,13.80
2012,07,02,02,54,13.80
2012,07,02,02,55,13.80
2012,07,02,02,56,13.80
2012,07,02,02,57,13.80
2012,07,02,02,58,13.70
2012,07,02,02,59,13.70
2012,07,02,03,00,13.70
2012,07,02,03,01,13.70
2012,07,02,03,02,13.70
2012,07,02,03,06,13.70
2012,07,02,03,07,13.70
2012,07,02,03,08,13.70
2012,07,02,03,09,13.70
2012,07,02,03,10,13.70
2012,07,02,03,11,13.60
2012,07,02,03,12,13.60
2012,07,02,03,13,13.60
2012,07,02,03,14,13.60
2012,07,02,03,15,13.60
2012,07,02,03,16,13.60
2012,07,02,03,17,13.60
2012,07,02,03,18,13.60
2012,07,02,03,19,13.60
2012,07,02,03,20,13.60
2012,07,02,03,21,13.60
2012,07,02,03,22,13.60
2012,07,02,03,23,13.60
2012,07,02,03,24,13.60
2012,07,02,03,25,13.60
2012,07,02,03,26,13.60
2012,07,02,03,27,13.60
2012,07,02,03,28,13.60
2012,07,02,03,29,13.60
2012,07,02,03,30,13.60
2012,07,02,03,31,13.60
2012,07,02,03,32,13.60
2012,07,02,03,33,13.60
2012,07,02,03,34,13.50
2012,07,02,03,35,13.60
2012,07,02,03,36,13.60
2012,07,02,03,37,13.50
2012,07,02,03,38,13.50
2012,07,02,03,39,13.50
2012,07,02,03,40,13.50
2012,07,02,03,41,13.50
2012,07,02,03,42,13.50
2012,07,02,03,43,13.50
2012,07,02,03,44,13.50
2012,07,02,03,45,13.50
2012,07,02,03,46,13.50
2012,07,02,03,47,13.50
2012,07,02,03,48,13.50
2012,07,02,03,49,13.50
2012,07,02,03,50,13.50
2012,07,02,03,51,13.40
2012,07,02,03,52,13.40
2012,07,02,03,53,13.40
2012,07,02,03,54,13.40
2012,07,02,03,55,13.40
2012,07,02,03,56,13.40
2012,07,02,03,57,13.40
2012,07,02,03,58,13.40
2012,07,02,03,59,13.40
2012,07,02,04,00,13.40
2012,07,02,04,01,13.40
2012,07,02,04,02,13.40
2012,07,02,04,03,13.40
2012,07,02,04,04,13.40
2012,07,02,04,05,13.40
2012,07,02,04,06,13.40
2012,07,02,04,07,13.40
2012,07,02,04,08,13.30
2012,07,02,04,09,13.30
2012,07,02,04,10,13.30
2012,07,02,04,11,13.30
2012,07,02,04,12,13.30
2012,07,02,04,13,13.30
2012,07,02,04,14,13.30
2012,07,02,04,15,13.30
2012,07,02,04,16,13.30
2012,07,02,04,17,13.30
2012,07,02,04,18,13.30
2012,07,02,04,19,13.30
2012,07,02,04,20,13.30
2012,07,02,04,21,13.30
2012,07,02,04,22,13.30
2012,07,02,04,23,13.20
2012,07,02,04,24,13.20
2012,07,02,04,25,13.20
2012,07,02,04,26,13.20
2012,07,02,04,27,13.10
2012,07,02,04,28,13.10
2012,07,02,04,29,13.10
2012,07,02,04,30,13.10
2012,07,02,04,31,13.10
2012,07,02,04,32,13.00
2012,07,02,04,33,13.00
2012,07,02,04,34,13.00
2012,07,02,04,35,13.00
2012,07,02,04,36,12.90
2012,07,02,04,37,12.90
2012,07,02,04,38,12.90
2012,07,02,04,39,12.90
2012,07,02,04,40,12.90
2012,07,02,04,41,12.90
2012,07,02,04,42,12.90
2012,07,02,04,43,12.90
2012,07,02,04,44,12.90
2012,07,02,04,45,12.90
2012,07,02,04,46,12.80
2012,07,02,04,47,12.80
2012,07,02,04,48,12.80
2012,07,02,04,49,12.80
2012,07,02,04,50,12.80
2012,07,02,04,51,12.80
2012,07,02,04,52,12.80
2012,07,02,04,53,12.80
2012,07,02,04,54,12.80
2012,07,02,04,55,12.80
2012,07,02,04,56,12.70
2012,07,02,04,57,12.70
2012,07,02,04,58,12.70
2012,07,02,04,59,12.70
2012,07,02,05,00,12.70
2012,07,02,05,01,12.70
2012,07,02,05,02,12.70
2012,07,02,05,03,12.70
2012,07,02,05,04,12.70
2012,07,02,05,05,12.70
2012,07,02,05,06,12.70
2012,07,02,05,07,12.70
2012,07,02,05,08,12.70
2012,07,02,05,09,12.70
2012,07,02,05,10,12.60
2012,07,02,05,11,12.60
2012,07,02,05,12,12.60
2012,07,02,05,13,12.60
2012,07,02,05,14,12.60
2012,07,02,05,15,12.60
2012,07,02,05,16,12.60
2012,07,02,05,17,12.60
2012,07,02,05,18,12.60
2012,07,02,05,19,12.60
2012,07,02,05,20,12.60
2012,07,02,05,21,12.60
2012,07,02,05,22,12.60
2012,07,02,05,23,12.60
2012,07,02,05,24,12.60
2012,07,02,05,25,12.60
2012,07,02,05,26,12.60
2012,07,02,05,27,12.60
2012,07,02,05,28,12.60
2012,07,02,05,29,12.60
2012,07,02,05,30,12.60
2012,07,02,05,31,12.60
2012,07,02,05,32,12.60
2012,07,02,05,33,12.60
2012,07,02,05,34,12.60
2012,07,02,05,35,12.60
2012,07,02,05,36,12.60
2012,07,02,05,37,12.60
2012,07,02,05,38,12.60
2012,07,02,05,39,12.60
2012,07,02,05,40,12.60
2012,07,02,05,41,12.60
2012,07,02,05,42,12.60
2012,07,02,05,43,12.60
2012,07,02,05,44,12.70
2012,07,02,05,45,12.70
2012,07,02,05,46,12.70
2012,07,02,05,47,12.70
2012,07,02,05,48,12.70
2012,07,02,05,49,12.70
2012,07,02,05,50,12.70
2012,07,02,05,51,12.70
2012,07,02,05,52,12.70
2012,07,02,05,53,12.70
2012,07,02,05,54,12.70
2012,07,02,05,55,12.70
2012,07,02,05,56,12.70
2012,07,02,05,57,12.70
2012,07,02,05,58,12.70
2012,07,02,05,59,12.60
2012,07,02,06,00,12.60
2012,07,02,06,01,12.60
2012,07,02,06,02,12.60
2012,07,02,06,03,12.60
2012,07,02,06,04,12.60
2012,07,02,06,05,12.60
2012,07,02,06,06,12.60
2012,07,02,06,07,12.60
2012,07,02,06,08,12.60
2012,07,02,06,09,12.60
2012,07,02,06,10,12.60
2012,07,02,06,11,12.60
2012,07,02,06,12,12.60
2012,07,02,06,13,12.60
2012,07,02,06,14,12.60
2012,07,02,06,15,12.60
2012,07,02,06,16,12.60
2012,07,02,06,17,12.50
2012,07,02,06,18,12.50
2012,07,02,06,19,12.50
2012,07,02,06,20,12.40
2012,07,02,06,21,12.40
2012,07,02,06,22,12.40
2012,07,02,06,23,12.30
2012,07,02,06,24,12.30
2012,07,02,06,25,12.30
2012,07,02,06,26,12.30
2012,07,02,06,27,12.20
2012,07,02,06,28,12.20
2012,07,02,06,29,12.20
2012,07,02,06,30,12.20
2012,07,02,06,31,12.10
2012,07,02,06,32,12.10
2012,07,02,06,33,12.10
2012,07,02,06,34,12.10
2012,07,02,06,35,12.10
2012,07,02,06,36,12.10
2012,07,02,06,37,12.10
2012,07,02,06,38,12.10
2012,07,02,06,39,12.10
2012,07,02,06,40,12.10
2012,07,02,06,41,12.10
2012,07,02,06,42,12.10
2012,07,02,06,43,12.10
2012,07,02,06,44,12.10
2012,07,02,06,45,12.10
2012,07,02,06,46,12.10
2012,07,02,06,47,12.10
2012,07,02,06,48,12.10
2012,07,02,06,49,12.10
2012,07,02,06,50,12.10
2012,07,02,06,51,12.10
2012,07,02,06,52,12.10
2012,07,02,06,53,12.10
2012,07,02,06,54,12.10
2012,07,02,06,55,12.10
2012,07,02,06,56,12.10
2012,07,02,06,57,12.10
2012,07,02,06,58,12.10
2012,07,02,06,59,12.10
2012,07,02,07,00,12.00
2012,07,02,07,01,12.00
2012,07,02,07,02,12.00
2012,07,02,07,03,12.00
2012,07,02,07,04,12.00
2012,07,02,07,05,12.00
2012,07,02,07,06,11.90
2012,07,02,07,07,11.90
2012,07,02,07,08,11.90
2012,07,02,07,09,11.90
2012,07,02,07,10,11.90
2012,07,02,07,11,11.90
2012,07,02,07,12,11.90
2012,07,02,07,13,11.90
2012,07,02,07,14,11.90
2012,07,02,07,15,11.90
2012,07,02,07,16,11.90
2012,07,02,07,17,11.90
2012,07,02,07,18,11.90
2012,07,02,07,19,11.90
2012,07,02,07,20,11.90
2012,07,02,07,21,11.90
2012,07,02,07,22,11.90
2012,07,02,07,23,11.90
2012,07,02,07,24,11.90
2012,07,02,07,25,11.90
2012,07,02,07,26,11.90
2012,07,02,07,27,11.90
2012,07,02,07,28,11.90
2012,07,02,07,29,11.90
2012,07,02,07,30,11.90
2012,07,02,07,31,11.90
2012,07,02,07,32,11.90
2012,07,02,07,33,11.90
2012,07,02,07,34,11.90
2012,07,02,07,35,11.90
2012,07,02,07,36,11.90
2012,07,02,07,37,11.90
2012,07,02,07,38,11.90
2012,07,02,07,39,12.00
2012,07,02,07,40,12.00
2012,07,02,07,41,11.90
2012,07,02,07,42,11.90
2012,07,02,07,43,11.90
2012,07,02,07,44,11.90
2012,07,02,07,45,11.90
2012,07,02,07,46,11.90
2012,07,02,07,47,11.90
2012,07,02,07,48,12.00
2012,07,02,07,49,12.00
2012,07,02,07,50,11.90
2012,07,02,07,51,11.90
2012,07,02,07,52,11.90
2012,07,02,07,53,11.90
2012,07,02,07,54,11.90
2012,07,02,07,55,11.90
2012,07,02,07,56,11.90
2012,07,02,07,57,11.90
2012,07,02,07,58,11.90
2012,07,02,07,59,11.90
2012,07,02,08,00,11.90
2012,07,02,08,01,11.90
2012,07,02,08,02,11.90
2012,07,02,08,03,12.00
2012,07,02,08,04,12.00
2012,07,02,08,05,12.00
2012,07,02,08,06,12.00
2012,07,02,08,07,12.00
2012,07,02,08,08,12.00
2012,07,02,08,09,12.00
2012,07,02,08,10,12.00
2012,07,02,08,11,12.00
2012,07,02,08,12,12.00
2012,07,02,08,13,12.10
2012,07,02,08,14,12.10
2012,07,02,08,15,12.10
2012,07,02,08,16,12.10
2012,07,02,08,17,12.10
2012,07,02,08,18,12.10
2012,07,02,08,19,12.10
2012,07,02,08,20,12.10
2012,07,02,08,21,12.20
2012,07,02,08,22,12.20
2012,07,02,08,23,12.20
2012,07,02,08,24,12.20
2012,07,02,08,25,12.20
2012,07,02,08,26,12.20
2012,07,02,08,27,12.30
2012,07,02,08,28,12.30
2012,07,02,08,29,12.30
2012,07,02,08,30,12.40
2012,07,02,08,31,12.40
2012,07,02,08,32,12.40
2012,07,02,08,33,12.40
2012,07,02,08,34,12.40
2012,07,02,08,35,12.40
2012,07,02,08,36,12.50
2012,07,02,08,37,12.40
2012,07,02,08,38,12.50
2012,07,02,08,39,12.50
2012,07,02,08,40,12.50
2012,07,02,08,41,12.50
2012,07,02,08,42,12.50
2012,07,02,08,43,12.50
2012,07,02,08,44,12.50
2012,07,02,08,45,12.50
2012,07,02,08,46,12.50
2012,07,02,08,47,12.50
2012,07,02,08,48,12.50
2012,07,02,08,49,12.50
2012,07,02,08,50,12.50
2012,07,02,08,51,12.60
2012,07,02,08,52,12.60
2012,07,02,08,53,12.50
2012,07,02,08,54,12.50
2012,07,02,08,55,12.40
2012,07,02,08,56,12.30
2012,07,02,08,57,12.30
2012,07,02,08,58,12.20
2012,07,02,08,59,12.20
2012,07,02,09,00,12.10
2012,07,02,09,01,12.10
2012,07,02,09,02,12.10
2012,07,02,09,03,12.00
2012,07,02,09,04,12.00
2012,07,02,09,05,12.00
2012,07,02,09,06,12.00
2012,07,02,09,07,12.00
2012,07,02,09,08,12.00
2012,07,02,09,09,12.00
2012,07,02,09,10,12.00
2012,07,02,09,11,12.00
2012,07,02,09,12,12.00
2012,07,02,09,13,12.00
2012,07,02,09,14,12.00
2012,07,02,09,15,11.90
2012,07,02,09,16,11.90
2012,07,02,09,17,11.90
2012,07,02,09,18,11.90
2012,07,02,09,19,11.90
2012,07,02,09,20,11.90
2012,07,02,09,21,11.90
2012,07,02,09,22,11.90
2012,07,02,09,23,11.90
2012,07,02,09,24,11.90
2012,07,02,09,25,11.90
2012,07,02,09,26,11.90
2012,07,02,09,27,11.90
2012,07,02,09,28,11.90
2012,07,02,09,29,11.90
2012,07,02,09,30,12.00
2012,07,02,09,31,12.00
2012,07,02,09,32,12.00
2012,07,02,09,33,12.00
2012,07,02,09,34,12.00
2012,07,02,09,35,11.90
2012,07,02,09,36,11.90
2012,07,02,09,37,11.90
2012,07,02,09,38,11.90
2012,07,02,09,39,11.90
2012,07,02,09,40,11.90
2012,07,02,09,41,11.90
2012,07,02,09,42,11.90
2012,07,02,09,43,12.00
2012,07,02,09,44,12.00
2012,07,02,09,45,12.10
2012,07,02,09,46,12.10
2012,07,02,09,47,12.10
2012,07,02,09,48,12.10
2012,07,02,09,49,12.10
2012,07,02,09,50,12.10
2012,07,02,09,51,12.10
2012,07,02,09,52,12.10
2012,07,02,09,53,12.20
2012,07,02,09,54,12.20
2012,07,02,09,55,12.20
2012,07,02,09,56,12.20
2012,07,02,09,57,12.20
2012,07,02,09,58,12.20
2012,07,02,09,59,12.20
2012,07,02,10,00,12.20
2012,07,02,10,01,12.20
2012,07,02,10,02,12.20
2012,07,02,10,03,12.20
2012,07,02,10,04,12.20
2012,07,02,10,05,12.20
2012,07,02,10,06,12.20
2012,07,02,10,07,12.20
2012,07,02,10,08,12.20
2012,07,02,10,09,12.20
2012,07,02,10,10,12.20
2012,07,02,10,11,12.20
2012,07,02,10,12,12.20
2012,07,02,10,13,12.20
2012,07,02,10,14,12.20
2012,07,02,10,15,12.30
2012,07,02,10,16,12.30
2012,07,02,10,17,12.30
2012,07,02,10,18,12.30
2012,07,02,10,19,12.30
2012,07,02,10,20,12.30
2012,07,02,10,21,12.30
2012,07,02,10,22,12.30
2012,07,02,10,23,12.20
2012,07,02,10,24,12.20
2012,07,02,10,25,12.20
2012,07,02,10,26,12.20
2012,07,02,10,27,12.20
2012,07,02,10,28,12.20
2012,07,02,10,29,12.20
2012,07,02,10,30,12.20
2012,07,02,10,31,12.20
2012,07,02,10,32,12.20
2012,07,02,10,33,12.20
2012,07,02,10,34,12.20
2012,07,02,10,35,12.20
2012,07,02,10,36,12.20
2012,07,02,10,37,12.20
2012,07,02,10,38,12.20
2012,07,02,10,39,12.20
2012,07,02,10,40,12.20
2012,07,02,10,41,12.20
2012,07,02,10,42,12.20
2012,07,02,10,43,12.20
2012,07,02,10,44,12.20
2012,07,02,10,45,12.10
2012,07,02,10,46,12.10
2012,07,02,10,47,12.10
2012,07,02,10,48,12.10
2012,07,02,10,49,12.10
2012,07,02,10,50,12.10
2012,07,02,10,51,12.10
2012,07,02,10,52,12.10
2012,07,02,10,53,12.10
2012,07,02,10,54,12.10
2012,07,02,10,55,12.10
2012,07,02,10,56,12.10
2012,07,02,10,57,12.10
2012,07,02,10,58,12.10
2012,07,02,10,59,12.20
2012,07,02,11,00,12.20
2012,07,02,11,01,12.20
2012,07,02,11,02,12.20
2012,07,02,11,03,12.20
2012,07,02,11,04,12.20
2012,07,02,11,05,12.20
2012,07,02,11,06,12.20
2012,07,02,11,07,12.20
2012,07,02,11,08,12.30
2012,07,02,11,09,12.30
2012,07,02,11,10,12.30
2012,07,02,11,11,12.30
2012,07,02,11,12,12.30
2012,07,02,11,13,12.30
2012,07,02,11,14,12.30
2012,07,02,11,15,12.30
2012,07,02,11,16,12.30
2012,07,02,11,17,12.30
2012,07,02,11,18,12.30
2012,07,02,11,19,12.30
2012,07,02,11,20,12.30
2012,07,02,11,21,12.40
2012,07,02,11,22,12.40
2012,07,02,11,23,12.40
2012,07,02,11,24,12.40
2012,07,02,11,25,12.40
2012,07,02,11,26,12.40
2012,07,02,11,27,12.40
2012,07,02,11,28,12.40
2012,07,02,11,29,12.50
2012,07,02,11,30,12.50
2012,07,02,11,31,12.60
2012,07,02,11,32,12.60
2012,07,02,11,33,12.50
2012,07,02,11,34,12.50
2012,07,02,11,35,12.50
2012,07,02,11,36,12.50
2012,07,02,11,37,12.50
2012,07,02,11,38,12.50
2012,07,02,11,39,12.50
2012,07,02,11,40,12.50
2012,07,02,11,41,12.50
2012,07,02,11,42,12.50
2012,07,02,11,43,12.60
2012,07,02,11,44,12.60
2012,07,02,11,45,12.60
2012,07,02,11,46,12.60
2012,07,02,11,47,12.60
2012,07,02,11,48,12.60
2012,07,02,11,49,12.70
2012,07,02,11,50,12.70
2012,07,02,11,51,12.70
2012,07,02,11,52,12.70
2012,07,02,11,53,12.70
2012,07,02,11,54,12.70
2012,07,02,11,55,12.70
2012,07,02,11,56,12.70
2012,07,02,11,57,12.70
2012,07,02,11,58,12.70
2012,07,02,11,59,12.70
2012,07,02,12,00,12.70
2012,07,02,12,01,12.80
2012,07,02,12,02,12.80
2012,07,02,12,03,12.80
2012,07,02,12,04,12.80
2012,07,02,12,05,12.80
2012,07,02,12,06,12.80
2012,07,02,12,07,12.80
2012,07,02,12,08,12.80
2012,07,02,12,09,12.80
2012,07,02,12,10,12.90
2012,07,02,12,11,12.90
2012,07,02,12,12,12.90
2012,07,02,12,13,12.90
2012,07,02,12,14,12.90
2012,07,02,12,15,12.90
2012,07,02,12,16,12.90
2012,07,02,12,17,12.90
2012,07,02,12,18,12.90
2012,07,02,12,19,13.00
2012,07,02,12,20,13.00
2012,07,02,12,21,13.00
2012,07,02,12,22,13.00
2012,07,02,12,23,13.00
2012,07,02,12,24,13.00
2012,07,02,12,25,13.00
2012,07,02,12,26,13.00
2012,07,02,12,27,13.00
2012,07,02,12,28,13.00
2012,07,02,12,29,13.00
2012,07,02,12,30,13.00
2012,07,02,12,31,13.00
2012,07,02,12,32,13.00
2012,07,02,12,33,13.00
2012,07,02,12,34,13.00
2012,07,02,12,35,13.00
2012,07,02,12,36,13.00
2012,07,02,12,37,13.00
2012,07,02,12,38,13.00
2012,07,02,12,39,13.00
2012,07,02,12,40,13.00
2012,07,02,12,41,13.00
2012,07,02,12,42,13.10
2012,07,02,12,43,13.10
2012,07,02,12,44,13.10
2012,07,02,12,45,13.10
2012,07,02,12,46,13.10
2012,07,02,12,47,13.20
2012,07,02,12,48,13.20
2012,07,02,12,49,13.20
2012,07,02,12,50,13.20
2012,07,02,12,51,13.20
2012,07,02,12,52,13.20
2012,07,02,12,53,13.20
2012,07,02,12,54,13.30
2012,07,02,12,55,13.20
2012,07,02,12,56,13.30
2012,07,02,12,57,13.30
2012,07,02,12,58,13.30
2012,07,02,12,59,13.30
2012,07,02,13,00,13.30
2012,07,02,13,01,13.30
2012,07,02,13,02,13.30
2012,07,02,13,03,13.40
2012,07,02,13,04,13.40
2012,07,02,13,05,13.40
2012,07,02,13,06,13.40
2012,07,02,13,07,13.50
2012,07,02,13,08,13.50
2012,07,02,13,09,13.50
2012,07,02,13,10,13.40
2012,07,02,13,11,13.40
2012,07,02,13,12,13.40
2012,07,02,13,13,13.40
2012,07,02,13,14,13.40
2012,07,02,13,15,13.30
2012,07,02,13,16,13.30
2012,07,02,13,17,13.30
2012,07,02,13,18,13.30
2012,07,02,13,19,13.30
2012,07,02,13,20,13.30
2012,07,02,13,21,13.40
2012,07,02,13,22,13.40
2012,07,02,13,23,13.40
2012,07,02,13,24,13.40
2012,07,02,13,25,13.30
2012,07,02,13,26,13.30
2012,07,02,13,27,13.30
2012,07,02,13,28,13.30
2012,07,02,13,29,13.40
2012,07,02,13,30,13.40
2012,07,02,13,31,13.40
2012,07,02,13,32,13.40
2012,07,02,13,33,13.40
2012,07,02,13,34,13.40
2012,07,02,13,35,13.40
2012,07,02,13,36,13.30
2012,07,02,13,37,13.30
2012,07,02,13,38,13.30
2012,07,02,13,39,13.30
2012,07,02,13,40,13.30
2012,07,02,13,41,13.30
2012,07,02,13,42,13.30
2012,07,02,13,43,13.40
2012,07,02,13,44,13.40
2012,07,02,13,45,13.40
2012,07,02,13,46,13.40
2012,07,02,13,47,13.50
2012,07,02,13,48,13.50
2012,07,02,13,49,13.50
2012,07,02,13,50,13.50
2012,07,02,13,51,13.60
2012,07,02,13,52,13.60
2012,07,02,13,53,13.60
2012,07,02,13,54,13.70
2012,07,02,13,55,13.80
2012,07,02,13,56,13.80
2012,07,02,13,57,13.80
2012,07,02,13,58,13.90
2012,07,02,13,59,13.80
2012,07,02,14,00,13.80
2012,07,02,14,01,13.80
2012,07,02,14,02,13.80
2012,07,02,14,03,13.80
2012,07,02,14,04,13.80
2012,07,02,14,05,13.80
2012,07,02,14,06,13.80
2012,07,02,14,07,13.70
2012,07,02,14,08,13.80
2012,07,02,14,09,13.80
2012,07,02,14,10,13.80
2012,07,02,14,11,13.80
2012,07,02,14,12,13.80
2012,07,02,14,13,13.80
2012,07,02,14,14,13.80
2012,07,02,14,15,13.80
2012,07,02,14,16,13.90
2012,07,02,14,17,13.90
2012,07,02,14,18,13.90
2012,07,02,14,19,13.90
2012,07,02,14,20,13.90
2012,07,02,14,21,13.90
2012,07,02,14,22,13.90
2012,07,02,14,23,13.90
2012,07,02,14,24,13.90
2012,07,02,14,25,13.90
2012,07,02,14,26,13.90
2012,07,02,14,27,13.90
2012,07,02,14,28,13.90
2012,07,02,14,29,13.90
2012,07,02,14,30,13.90
2012,07,02,14,31,13.90
2012,07,02,14,32,13.90
2012,07,02,14,33,13.90
2012,07,02,14,34,13.90
2012,07,02,14,35,13.80
2012,07,02,14,36,13.80
2012,07,02,14,37,13.80
2012,07,02,14,38,13.90
2012,07,02,14,39,13.90
2012,07,02,14,40,13.90
2012,07,02,14,41,13.90
2012,07,02,14,42,13.90
2012,07,02,14,43,13.90
2012,07,02,14,44,13.90
2012,07,02,14,45,13.90
2012,07,02,14,46,13.90
2012,07,02,14,47,13.90
2012,07,02,14,48,13.90
2012,07,02,14,49,13.90
2012,07,02,14,50,13.90
2012,07,02,14,51,14.00
2012,07,02,14,52,14.00
2012,07,02,14,53,13.90
2012,07,02,14,54,13.90
2012,07,02,14,55,13.90
2012,07,02,14,56,13.90
2012,07,02,14,57,13.90
2012,07,02,14,58,13.90
2012,07,02,14,59,13.90
2012,07,02,15,00,13.90
2012,07,02,15,01,13.90
2012,07,02,15,02,13.90
2012,07,02,15,03,13.90
2012,07,02,15,04,13.90
2012,07,02,15,05,13.90
2012,07,02,15,06,13.90
2012,07,02,15,07,13.90
2012,07,02,15,08,13.90
2012,07,02,15,09,13.90
2012,07,02,15,10,13.90
2012,07,02,15,11,13.90
2012,07,02,15,12,13.90
2012,07,02,15,13,13.90
2012,07,02,15,14,13.90
2012,07,02,15,15,13.90
2012,07,02,15,16,13.90
2012,07,02,15,17,13.90
2012,07,02,15,18,13.90
2012,07,02,15,19,13.90
2012,07,02,15,20,13.90
2012,07,02,15,21,13.90
2012,07,02,15,22,14.00
2012,07,02,15,23,14.00
2012,07,02,15,24,14.00
2012,07,02,15,25,14.00
2012,07,02,15,26,14.10
2012,07,02,15,27,14.10
2012,07,02,15,28,14.10
2012,07,02,15,29,14.10
2012,07,02,15,30,14.10
2012,07,02,15,31,14.10
2012,07,02,15,32,14.10
2012,07,02,15,33,14.10
2012,07,02,15,34,14.10
2012,07,02,15,35,14.10
2012,07,02,15,36,14.10
2012,07,02,15,37,14.10
2012,07,02,15,38,14.10
2012,07,02,15,39,14.10
2012,07,02,15,40,14.10
2012,07,02,15,41,14.00
2012,07,02,15,42,14.00
2012,07,02,15,43,14.00
2012,07,02,15,44,14.00
2012,07,02,15,45,14.00
2012,07,02,15,46,13.90
2012,07,02,15,47,13.90
2012,07,02,15,48,13.90
2012,07,02,15,49,13.90
2012,07,02,15,50,13.90
2012,07,02,15,51,13.90
2012,07,02,15,52,13.90
2012,07,02,15,53,13.90
2012,07,02,15,54,14.00
2012,07,02,15,55,14.00
2012,07,02,15,56,14.00
2012,07,02,15,57,14.00
2012,07,02,15,58,14.00
2012,07,02,15,59,14.00
2012,07,02,16,00,14.00
2012,07,02,16,01,14.10
2012,07,02,16,02,14.10
2012,07,02,16,03,14.10
2012,07,02,16,04,14.10
2012,07,02,16,05,14.10
2012,07,02,16,06,14.10
2012,07,02,16,07,14.10
2012,07,02,16,08,14.00
2012,07,02,16,09,14.00
2012,07,02,16,10,14.00
2012,07,02,16,11,14.00
2012,07,02,16,12,14.00
2012,07,02,16,13,14.00
2012,07,02,16,14,14.00
2012,07,02,16,15,14.00
2012,07,02,16,16,14.00
2012,07,02,16,17,13.90
2012,07,02,16,18,13.90
2012,07,02,16,19,13.90
2012,07,02,16,20,13.90
2012,07,02,16,21,13.90
2012,07,02,16,22,13.90
2012,07,02,16,23,13.90
2012,07,02,16,24,13.90
2012,07,02,16,25,13.90
2012,07,02,16,26,13.90
2012,07,02,16,27,14.00
2012,07,02,16,28,14.00
2012,07,02,16,29,13.90
2012,07,02,16,30,13.90
2012,07,02,16,31,13.90
2012,07,02,16,32,13.90
2012,07,02,16,33,13.90
2012,07,02,16,34,13.90
2012,07,02,16,35,13.90
2012,07,02,16,36,13.90
2012,07,02,16,37,13.90
2012,07,02,16,38,13.90
2012,07,02,16,39,13.90
2012,07,02,16,40,13.90
2012,07,02,16,41,13.90
2012,07,02,16,42,13.90
2012,07,02,16,43,13.90
2012,07,02,16,44,13.90
2012,07,02,16,45,13.90
2012,07,02,16,46,13.90
2012,07,02,16,47,14.00
2012,07,02,16,48,14.00
2012,07,02,16,49,14.00
2012,07,02,16,50,14.00
2012,07,02,16,51,13.90
2012,07,02,16,52,13.90
2012,07,02,16,53,13.90
2012,07,02,16,54,13.90
2012,07,02,16,55,13.90
2012,07,02,16,56,13.90
2012,07,02,16,57,13.90
2012,07,02,16,58,13.90
2012,07,02,16,59,14.00
2012,07,02,17,00,14.00
2012,07,02,17,01,14.00
2012,07,02,17,02,13.90
2012,07,02,17,03,13.90
2012,07,02,17,04,13.90
2012,07,02,17,05,14.00
2012,07,02,17,06,14.00
2012,07,02,17,07,14.00
2012,07,02,17,08,14.00
2012,07,02,17,09,14.00
2012,07,02,17,10,14.10
2012,07,02,17,11,14.10
2012,07,02,17,12,14.10
2012,07,02,17,13,14.10
2012,07,02,17,14,14.10
2012,07,02,17,15,14.10
2012,07,02,17,16,14.10
2012,07,02,17,17,14.10
2012,07,02,17,18,14.10
2012,07,02,17,19,14.10
2012,07,02,17,20,14.10
2012,07,02,17,21,14.10
2012,07,02,17,22,14.10